TimeCDT,TemperatureF,Dew PointF,Humidity,Sea Level PressureIn,VisibilityMPH,Wind Direction,Wind SpeedMPH,Gust SpeedMPH,PrecipitationIn,Events,Conditions,WindDirDegrees,DateUTC
12:15 AM,83.3,61.3,47,29.92,10.0,South,15.0,-,N/A,,Clear,170,2013-06-12 05:15:00
12:35 AM,82.9,62.1,49,29.92,10.0,South,15.0,-,N/A,,Clear,170,2013-06-12 05:35:00
12:55 AM,82.6,62.8,51,29.92,10.0,South,16.1,-,N/A,,Clear,170,2013-06-12 05:55:00
1:15 AM,82.4,63.1,52,29.91,10.0,South,17.3,-,N/A,,Clear,170,2013-06-12 06:15:00
1:35 AM,81.9,63.5,54,29.90,10.0,SSE,19.6,25.3,N/A,,Clear,160,2013-06-12 06:35:00
1:55 AM,81.5,63.5,54,29.90,10.0,South,16.1,24.2,N/A,,Clear,170,2013-06-12 06:55:00
2:15 AM,81.5,63.5,54,29.90,10.0,South,16.1,-,N/A,,Clear,170,2013-06-12 07:15:00
2:35 AM,81.1,63.5,55,29.90,10.0,South,16.1,-,N/A,,Clear,180,2013-06-12 07:35:00
2:55 AM,81.5,63.5,54,29.92,10.0,South,17.3,-,N/A,,Clear,180,2013-06-12 07:55:00
3:15 AM,81.3,63.0,54,29.92,10.0,South,17.3,21.9,N/A,,Clear,190,2013-06-12 08:15:00
3:35 AM,80.8,62.8,54,29.92,10.0,SSW,13.8,-,N/A,,Clear,200,2013-06-12 08:35:00
3:55 AM,80.1,63.0,56,29.93,10.0,SSW,15.0,-,N/A,,Clear,200,2013-06-12 08:55:00
4:15 AM,79.7,63.0,56,29.93,10.0,SSW,11.5,-,N/A,,Clear,200,2013-06-12 09:15:00
4:35 AM,78.6,63.0,59,29.93,10.0,South,11.5,-,N/A,,Clear,190,2013-06-12 09:35:00
4:55 AM,77.9,63.1,60,29.94,10.0,SSW,9.2,-,N/A,,Clear,200,2013-06-12 09:55:00
5:15 AM,77.2,63.5,63,29.95,10.0,SSW,9.2,-,N/A,,Clear,200,2013-06-12 10:15:00
5:35 AM,77.0,63.5,63,29.96,10.0,SSW,9.2,-,N/A,,Clear,210,2013-06-12 10:35:00
5:55 AM,76.3,63.7,65,29.97,10.0,SSW,8.1,-,N/A,,Clear,210,2013-06-12 10:55:00
6:15 AM,75.2,63.5,67,29.97,10.0,SSW,9.2,-,N/A,,Clear,200,2013-06-12 11:15:00
6:35 AM,75.2,63.7,67,29.98,10.0,SSW,9.2,-,N/A,,Clear,200,2013-06-12 11:35:00
6:55 AM,75.2,63.9,68,29.98,10.0,South,9.2,-,N/A,,Clear,190,2013-06-12 11:55:00
7:15 AM,75.7,64.2,67,29.99,10.0,South,11.5,-,N/A,,Clear,190,2013-06-12 12:15:00
7:35 AM,77.0,64.4,65,29.99,10.0,South,12.7,-,N/A,,Clear,190,2013-06-12 12:35:00
7:55 AM,78.3,64.8,63,29.99,10.0,SSW,16.1,-,N/A,,Clear,200,2013-06-12 12:55:00
8:15 AM,79.7,64.8,60,30.00,10.0,SSW,17.3,-,N/A,,Clear,200,2013-06-12 13:15:00
8:35 AM,81.3,64.4,56,30.01,10.0,SSW,17.3,21.9,N/A,,Clear,200,2013-06-12 13:35:00
8:55 AM,82.9,63.7,52,30.01,10.0,SSW,19.6,24.2,N/A,,Clear,210,2013-06-12 13:55:00
9:15 AM,84.7,63.7,49,30.01,10.0,SW,19.6,-,N/A,,Clear,220,2013-06-12 14:15:00
9:35 AM,85.3,63.5,48,30.01,10.0,SW,19.6,-,N/A,,Clear,220,2013-06-12 14:35:00
9:55 AM,86.0,63.3,47,30.01,10.0,SW,19.6,24.2,N/A,,Clear,220,2013-06-12 14:55:00
10:15 AM,86.9,62.8,44,30.02,10.0,SW,17.3,21.9,N/A,,Clear,230,2013-06-12 15:15:00
10:35 AM,89.1,62.8,41,30.01,10.0,SW,15.0,-,N/A,,Clear,220,2013-06-12 15:35:00
10:55 AM,89.6,62.2,40,30.01,10.0,SSW,17.3,23.0,N/A,,Clear,210,2013-06-12 15:55:00
11:15 AM,91.0,62.2,38,30.00,10.0,SW,18.4,-,N/A,,Clear,220,2013-06-12 16:15:00
11:35 AM,91.9,61.9,37,30.00,10.0,SSW,15.0,24.2,N/A,,Clear,210,2013-06-12 16:35:00
11:55 AM,93.0,61.2,34,30.00,10.0,SSW,18.4,27.6,N/A,,Clear,210,2013-06-12 16:55:00
12:15 PM,94.1,59.9,32,30.00,10.0,SSW,19.6,23.0,N/A,,Clear,210,2013-06-12 17:15:00
12:35 PM,95.4,58.6,29,29.99,10.0,SW,20.7,29.9,N/A,,Clear,220,2013-06-12 17:35:00
12:55 PM,95.9,58.5,29,29.98,10.0,SSW,23.0,27.6,N/A,,Clear,210,2013-06-12 17:55:00
1:15 PM,96.1,58.6,29,29.99,10.0,SSW,21.9,25.3,N/A,,Clear,210,2013-06-12 18:15:00
1:35 PM,97.0,58.1,27,29.98,10.0,SSW,23.0,27.6,N/A,,Clear,200,2013-06-12 18:35:00
1:55 PM,97.7,57.9,26,29.98,10.0,SW,18.4,25.3,N/A,,Clear,220,2013-06-12 18:55:00
2:15 PM,99.3,57.9,25,29.97,10.0,SSW,19.6,25.3,N/A,,Clear,200,2013-06-12 19:15:00
2:35 PM,99.1,57.4,25,29.97,10.0,SSW,15.0,24.2,N/A,,Clear,200,2013-06-12 19:35:00
2:55 PM,99.9,56.7,24,29.97,10.0,SSW,17.3,23.0,N/A,,Clear,200,2013-06-12 19:55:00
3:15 PM,100.0,56.8,24,29.96,10.0,SSW,18.4,25.3,N/A,,Clear,210,2013-06-12 20:15:00
3:35 PM,100.8,56.5,23,29.95,10.0,South,19.6,28.8,N/A,,Clear,190,2013-06-12 20:35:00
3:55 PM,100.8,55.4,22,29.94,10.0,SSW,18.4,23.0,N/A,,Clear,210,2013-06-12 20:55:00
4:15 PM,100.9,56.3,23,29.94,10.0,SSW,18.4,26.5,N/A,,Clear,200,2013-06-12 21:15:00
4:35 PM,100.9,55.9,22,29.94,10.0,SSW,19.6,31.1,N/A,,Clear,200,2013-06-12 21:35:00
4:55 PM,101.1,55.9,22,29.93,10.0,SSW,18.4,24.2,N/A,,Clear,200,2013-06-12 21:55:00
5:15 PM,100.8,56.3,23,29.93,10.0,SSW,17.3,24.2,N/A,,Clear,210,2013-06-12 22:15:00
5:35 PM,100.4,55.9,23,29.93,10.0,South,19.6,26.5,N/A,,Clear,190,2013-06-12 22:35:00
5:55 PM,100.4,56.3,23,29.93,10.0,South,18.4,23.0,N/A,,Clear,190,2013-06-12 22:55:00
6:15 PM,100.6,55.8,22,29.92,10.0,South,13.8,24.2,N/A,,Clear,190,2013-06-12 23:15:00
6:35 PM,99.7,55.2,23,29.92,10.0,South,13.8,21.9,N/A,,Clear,180,2013-06-12 23:35:00
6:55 PM,99.7,57.0,24,29.92,10.0,South,16.1,20.7,N/A,,Clear,180,2013-06-12 23:55:00
7:15 PM,99.0,56.3,24,29.93,10.0,South,18.4,-,N/A,,Clear,190,2013-06-13 00:15:00
7:35 PM,98.2,56.3,25,29.93,10.0,South,16.1,19.6,N/A,,Clear,190,2013-06-13 00:35:00
7:55 PM,97.2,56.3,25,29.94,10.0,South,13.8,-,N/A,,Clear,190,2013-06-13 00:55:00
8:15 PM,96.1,56.3,26,29.94,10.0,South,11.5,-,N/A,,Clear,190,2013-06-13 01:15:00
8:35 PM,95.0,56.7,28,29.94,10.0,South,9.2,-,N/A,,Clear,190,2013-06-13 01:35:00
8:55 PM,93.4,57.2,30,29.94,10.0,South,9.2,-,N/A,,Clear,190,2013-06-13 01:55:00
9:15 PM,91.6,57.2,31,29.94,10.0,South,9.2,-,N/A,,Clear,190,2013-06-13 02:15:00
9:35 PM,90.5,57.6,33,29.95,10.0,South,8.1,-,N/A,,Clear,180,2013-06-13 02:35:00
9:55 PM,90.9,58.1,33,29.96,10.0,South,12.7,-,N/A,,Clear,180,2013-06-13 02:55:00
10:15 PM,90.5,58.1,33,29.97,10.0,South,11.5,-,N/A,,Clear,180,2013-06-13 03:15:00
10:35 PM,89.6,58.3,35,29.97,10.0,South,11.5,-,N/A,,Clear,180,2013-06-13 03:35:00
10:55 PM,88.7,58.3,36,29.98,10.0,South,10.4,-,N/A,,Clear,190,2013-06-13 03:55:00
11:15 PM,87.8,58.6,37,29.98,10.0,South,10.4,-,N/A,,Clear,190,2013-06-13 04:15:00
11:35 PM,86.5,59.0,39,29.99,10.0,South,9.2,-,N/A,,Clear,170,2013-06-13 04:35:00
11:55 PM,85.5,59.5,41,29.99,10.0,South,8.1,-,N/A,,Clear,180,2013-06-13 04:55:00